Погода в Укмерге

Литва     55°15′01″N   24°45′55″E
темп.,
°C
ветер,
м/с
пор.,
м/с
влажн.,
%
обл.,
%
осадки,
мм/ч
давл.,
гПа
погр.,
м
17 мая, пн
пн1700:00+13юв41094100 0.8 1006242
03:00+13юв41095100 3.1 1005325
06:00+13ююв51196100 1.7 1005463
09:00+13ююз3697100 4.8 1006418
12:00+13ююз3489100 0.8 1007392
15:00+18ююв126970 0.8 1006964
18:00+18с2266100 0.1 10051048
21:00+14с348597 0.1 100463
18 мая, вт
вт1800:00+12ссв339599 0.0 100461
03:00+11с239785 0.0 100344
06:00+11сз239863 0.0 1002111
09:00+14ссз2391100 0.0 1002409
12:00+16ссз4484100 1.1 1003719
15:00+16с458285 2.6 1004804
18:00+16ссв347799 0.3 1004801
21:00+13ссв369374 0.4 1004131
19 мая, ср
ср1900:00+11с2396100 0.0 100549
03:00+10сз239767 0.0 100647
06:00+10сз249889 0.0 100692
09:00+12сз348895 0.0 1007384
12:00+15сз4478100 0.2 1007906
15:00+16сз5674100 1.0 10071123
18:00+14сз4876100 0.1 1007573
21:00+12сз5988100 0.2 1008384
20 мая, чт
чт2000:00+10сз498499 0.0 1008284
03:00+9ссз41187100 0.0 1008412
06:00+9сз4990100 0.0 1008445
09:00+11сз5783100 0.0 1008651
12:00+13зсз5777100 0.1 1008993
15:00+14зсз6871100 0.6 10081143
18:00+13зсз5980100 1.7 1009740
21:00+11зсз4986100 2.6 1010278
21 мая, пт
пт2100:00+8з3893100 0.0 1012185
03:00+6зюз4994100 0.0 1013239
06:00+6зюз4995100 0.0 1013306
09:00+9зюз578438 0.0 1014517
12:00+13зюз56626 0.0 10151429
15:00+13зюз4562100 0.1 10141275
18:00+13з566718 0.4 10141158
21:00+8з378938 1.7 1015149